[[{"header":{"parameterUnit":"m.s-1","parameterCategory":1,"la1":30.2991,"la2":30.254,"lo1":-89.0895,"lo2":-89.0444,"dy":0.0017,"dx":0.0017,"nx":28,"ny":28,"refTime":"2024-08-31T09:00:00:Z","depth":0,"parameterNumber":2,"parameterNumberName":"U-component_of_WINDS"},"data":[0,0,0,0,0,0,0,0,0,0,0,0,0,0,0,0,0,0,0,0,0,0,0,0,0,0,0,0,0,0,0,0,0,0,0,0,0,0,0,0,0,0,0,0,0,0,0,0,0,0,0,0,0,0,0,0,0,0,-4.6005,-4.6006,0,-4.6113,-4.6114,-4.6115,-4.6016,-4.6012,-4.6008,-4.6004,-4.6116,-4.6123,-4.6129,0,0,0,0,0,0,0,0,0,0,0,0,0,-4.5714,-4.572,-4.6004,-4.6006,-4.6007,-4.6112,-4.6114,-4.6115,-4.6016,-4.6012,-4.6007,-4.6002,-4.6114,-4.6122,-4.613,0,0,0,0,0,0,0,0,0,0,0,0,0,-4.5833,-4.5722,-4.6004,-4.597,-4.5968,-4.6112,-4.6114,-4.6116,-4.6017,-4.6011,-4.6005,-4.6,-4.6111,-4.6121,-4.6131,-4.6314,0,0,-4.6162,-4.6166,0,0,0,0,0,0,0,0,-4.5826,-4.5844,-4.5974,-4.5973,-4.5971,-4.6044,-4.6052,-4.6182,-4.6019,-4.5999,-4.6004,-4.5997,-4.6097,-4.6108,-4.6142,-4.6319,-4.6324,-4.6163,-4.6169,-4.6173,-4.6176,0,0,0,0,0,0,0,-4.5818,-4.5839,-4.6047,-4.5976,-4.5974,-4.595,-4.5961,-4.6077,-4.6081,-4.6,-4.5993,-4.6007,-4.6095,-4.6132,-4.6144,-4.6326,-4.6163,-4.6172,-4.6178,-4.6182,-4.6659,-4.6666,0,0,0,0,0,0,-4.5813,-4.5832,-4.6044,-4.605,-4.5882,-4.5961,-4.5972,-4.6027,-4.6079,-4.6081,-4.6012,-4.6002,-4.6118,-4.6132,-4.6147,-4.6365,-4.6173,-4.6183,-4.6189,-4.6653,-4.6661,-4.6668,0,0,0,0,0,0,-4.5808,-4.5833,-4.6039,-4.594,-4.5964,-4.5972,-4.6035,-4.6032,-4.6069,-4.6088,-4.6089,-4.6049,-4.6114,-4.6133,-4.6273,-4.6367,-4.6187,-4.6197,-4.6645,-4.6655,-4.6664,-4.6802,0,0,0,0,0,0,-4.58,-4.5832,-4.5901,-4.5942,-4.597,-4.6164,-4.604,-4.6039,-4.6087,-4.6074,-4.6123,-4.6125,-4.6111,-4.6259,-4.6283,-4.6378,-4.6204,-4.6637,-4.665,-4.6661,-4.6789,-4.6815,-4.6838,0,0,0,0,0,-4.579,-4.5936,-4.5905,-4.5931,-4.6056,-4.6169,-4.6185,-4.6165,-4.6095,-4.6164,-4.6177,-4.6124,-4.6353,-4.6274,-4.6301,-4.64,-4.6631,-4.6646,-4.666,-4.6778,-4.681,-4.6837,0,0,0,0,0,0,-4.5906,-4.594,-4.5907,-4.607,-4.6118,-4.6152,-4.624,-4.6199,-4.6268,-4.6254,-4.6226,-4.6238,-4.6386,-4.6407,-4.6318,-4.658,-4.6481,-4.6502,-4.6561,-4.6592,-4.6616,-4.6608,-4.6213,0,0,0,0,0,-4.595,-4.6039,-4.6064,-4.6206,-4.6232,-4.6232,-4.628,-4.6261,-4.6309,-4.6328,-4.6351,-4.64,-4.6483,-4.6539,-4.6616,-4.6792,-4.6801,-4.6873,-4.6898,-4.6918,-4.6936,-4.7031,-4.7063,-4.6717,-4.6717,-4.6717,0,0,-4.6043,-4.6073,-4.6131,-4.623,-4.6264,-4.6357,-4.6249,-4.6352,-4.642,-4.6344,-4.6478,-4.6496,-4.6549,-4.6708,-4.6779,-4.673,-4.7034,-4.6937,-4.6952,-4.696,-4.705,-4.7082,-4.7112,-4.6727,-4.6725,-4.6724,0,0,-4.626,-4.6292,-4.6413,-4.645,-4.6503,-4.6503,-4.6532,-4.6573,-4.6583,-4.6716,-4.6661,-4.6743,-4.6886,-4.6926,-4.6966,-4.7199,-4.7153,-4.7225,-4.7353,-4.7445,-4.7473,-4.7497,-4.758,-4.761,-4.7243,-4.7244,-4.7244,0,-4.6369,-4.6506,-4.6481,-4.6588,-4.6633,-4.6568,-4.6692,-4.6729,-4.6805,-4.6838,-4.6782,-4.6961,-4.6992,-4.716,-4.7217,-4.7251,-4.7284,-4.7219,-4.7471,-4.7495,-4.7517,-4.7596,-4.7627,-4.7252,-4.7251,-4.725,-4.725,0,-4.6638,-4.6734,-4.6826,-4.6901,-4.6956,-4.7071,-4.7064,-4.7124,-4.71,-4.7105,-4.7243,-4.7278,-4.7362,-4.74,-4.7377,-4.7565,-4.7533,-4.7475,-4.7374,-4.7559,-4.7632,-4.7663,-4.7264,-4.7261,-4.7259,-4.7257,0,0,-4.693,-4.699,-4.7024,-4.7058,-4.7112,-4.7186,-4.7298,-4.7379,-4.7431,-4.7487,-4.758,-4.7704,-4.765,-4.7695,-4.7676,-4.7758,-4.7941,-4.7689,-4.769,-4.7735,-4.815,-4.8193,-4.8229,-4.791,-4.7916,-4.7921,-4.8145,0,-4.7149,-4.7343,-4.7324,-4.7508,-4.7597,-4.7537,-4.7634,-4.7679,-4.7687,-4.7764,-4.7773,-4.7861,-4.7784,-4.7811,-4.7889,-4.7902,-4.8024,-4.7885,-4.7998,-4.8002,-4.7986,-4.8267,-4.8313,-4.8524,-4.8174,-4.8179,-4.8182,0,-4.743,-4.7494,-4.7688,-4.7729,-4.7765,-4.7853,-4.7927,-4.8001,-4.805,-4.8051,-4.8101,-4.8069,-4.8182,-4.808,-4.8236,-4.8142,-4.8187,-4.8201,-4.8209,-4.8218,-4.8103,-4.8284,-4.859,-4.8622,-4.8228,-4.8224,-4.8221,0,-4.7624,-4.7759,-4.7892,-4.7923,-4.7974,-4.8038,-4.8062,-4.8106,-4.8156,-4.822,-4.8253,-4.833,-4.8373,-4.8433,-4.8423,-4.8349,-4.8583,-4.8479,-4.8586,-4.8587,-4.8638,-4.8635,-4.8955,-4.8668,-4.8667,-4.8667,-4.8666,0,-4.7869,-4.799,-4.798,-4.8062,-4.8196,-4.8173,-4.8306,-4.8323,-4.8363,-4.8447,-4.84,-4.8481,-4.8462,-4.8543,-4.8536,-4.8666,-4.8686,-4.869,-4.8686,-4.8694,-4.8693,-4.8723,-4.8708,-4.8675,-4.8673,-4.8671,-4.867,0,-4.8108,-4.8106,-4.8248,-4.8285,-4.8297,-4.8394,-4.8426,-4.8504,-4.8509,-4.8617,-4.8641,-4.8649,-4.8741,-4.8737,-4.8841,-4.8836,-4.8997,-4.8977,-4.8981,-4.8976,-4.9084,-4.9074,-4.9434,-4.948,-4.9163,-4.9166,-4.9169,0,-4.8265,-4.8356,-4.8404,-4.8457,-4.8486,-4.8572,-4.8623,-4.8605,-4.866,-4.8724,-4.8794,-4.8882,-4.8951,-4.9101,-4.9117,-4.9197,-4.9178,-4.9299,-4.919,-4.9195,-4.918,-4.9174,-4.9183,-4.932,-4.9324,-4.9327,-4.9329,0,-4.8544,-4.8538,-4.8613,-4.869,-4.8752,-4.8811,-4.8864,-4.8911,-4.8898,-4.8963,-4.9056,-4.911,-4.9217,-4.9305,-4.9382,-4.9407,-4.9367,-4.9363,-4.9392,-4.9401,-4.9399,-4.9401,-4.9039,-4.9355,-4.9352,-4.9351,-4.9349,-4.9348,-4.8746,-4.8825,-4.887,-4.8956,-4.8994,-4.9046,-4.9121,-4.9135,-4.9213,-4.9298,-4.9283,-4.9388,-4.9435,-4.9534,-4.9567,-4.965,-4.9606,-4.9649,-4.9659,-4.967,-4.9682,-4.9387,-4.9664,-4.9663,-4.9662,-4.9661,-4.9661,0,-4.9022,-4.9048,-4.9128,-4.9204,-4.9272,-4.9228,-4.9285,-4.9345,-4.9437,-4.9485,-4.9554,-4.9662,-4.9748,-4.977,-4.9852,-4.9914,-4.9898,-4.9936,-4.9931,-4.9938,-4.9716,-4.9682,-4.9948,-4.9948,-4.9948,-4.9948,-4.9948,-4.9948,-4.9173,-4.9304,-4.9304,-4.9454,-4.9479,-4.9581,-4.9618,-4.9666,-4.9704,-4.9826,-4.9897,-4.9911,-4.9949,-5.0033,-5.011,-5.0114,-5.0147,-5.0193,-5.019,-4.9982,-4.9954,-4.9926,-4.9894,-5.0201,-5.0201,-5.0405,-5.0407,-5.0409]},{"header":{"parameterUnit":"m.s-1","parameterCategory":1,"la1":30.2991,"la2":30.254,"lo1":-89.0895,"lo2":-89.0444,"dy":0.0017,"dx":0.0017,"nx":28,"ny":28,"refTime":"2024-08-31T09:00:00:Z","depth":0,"parameterNumber":3,"parameterNumberName":"V-component_of_WINDS"},"data":[0,0,0,0,0,0,0,0,0,0,0,0,0,0,0,0,0,0,0,0,0,0,0,0,0,0,0,0,0,0,0,0,0,0,0,0,0,0,0,0,0,0,0,0,0,0,0,0,0,0,0,0,0,0,0,0,0,0,-0.4837,-0.4836,0,-0.4758,-0.4758,-0.4757,-0.4781,-0.4783,-0.4784,-0.4786,-0.4703,-0.4699,-0.4695,0,0,0,0,0,0,0,0,0,0,0,0,0,-0.5003,-0.5,-0.4837,-0.4836,-0.4835,-0.4759,-0.4758,-0.4756,-0.4781,-0.4783,-0.4785,-0.4787,-0.4704,-0.47,-0.4695,0,0,0,0,0,0,0,0,0,0,0,0,0,-0.4928,-0.4999,-0.4837,-0.4838,-0.4837,-0.4759,-0.4757,-0.4756,-0.478,-0.4783,-0.4785,-0.4788,-0.4705,-0.47,-0.4694,-0.4609,0,0,-0.4677,-0.4675,0,0,0,0,0,0,0,0,-0.4933,-0.4922,-0.4839,-0.4838,-0.4837,-0.4782,-0.4786,-0.4707,-0.478,-0.4802,-0.4786,-0.4789,-0.4727,-0.472,-0.4699,-0.4606,-0.4602,-0.4677,-0.4673,-0.4671,-0.4669,0,0,0,0,0,0,0,-0.4938,-0.4926,-0.4806,-0.4837,-0.4836,-0.4841,-0.4833,-0.4771,-0.4751,-0.48,-0.4802,-0.4792,-0.4727,-0.4705,-0.4698,-0.4601,-0.4677,-0.4672,-0.4668,-0.4666,-0.443,-0.4427,0,0,0,0,0,0,-0.4944,-0.493,-0.4808,-0.4803,-0.4892,-0.4836,-0.4827,-0.4797,-0.4752,-0.4748,-0.479,-0.4794,-0.4713,-0.4704,-0.4695,-0.459,-0.4671,-0.4666,-0.4662,-0.4433,-0.4429,-0.4426,0,0,0,0,0,0,-0.4948,-0.4933,-0.4811,-0.4867,-0.4852,-0.483,-0.4796,-0.4794,-0.4772,-0.4745,-0.4741,-0.4771,-0.4715,-0.4703,-0.463,-0.4587,-0.4663,-0.4658,-0.4436,-0.4432,-0.4428,-0.4381,0,0,0,0,0,0,-0.4952,-0.4934,-0.4903,-0.4866,-0.4849,-0.4749,-0.4794,-0.4791,-0.4763,-0.4767,-0.4726,-0.4722,-0.4716,-0.4638,-0.4624,-0.4581,-0.4653,-0.444,-0.4434,-0.4429,-0.4386,-0.4375,-0.4366,0,0,0,0,0,-0.4958,-0.4893,-0.4901,-0.4886,-0.4809,-0.4747,-0.4736,-0.4732,-0.4759,-0.4726,-0.4708,-0.4723,-0.4595,-0.4631,-0.4615,-0.4569,-0.4442,-0.4436,-0.443,-0.439,-0.4377,-0.4366,0,0,0,0,0,0,-0.4924,-0.4888,-0.4897,-0.4818,-0.4785,-0.4751,-0.4709,-0.4719,-0.4677,-0.4682,-0.4678,-0.4668,-0.4593,-0.4574,-0.4615,-0.4483,-0.4522,-0.4513,-0.4498,-0.4485,-0.4476,-0.4481,-0.4649,0,0,0,0,0,-0.4907,-0.4861,-0.4831,-0.4764,-0.4748,-0.4731,-0.4704,-0.4703,-0.4669,-0.4655,-0.4631,-0.4596,-0.4548,-0.4516,-0.447,-0.4384,-0.4374,-0.4345,-0.4335,-0.4327,-0.4318,-0.4268,-0.4253,-0.4405,-0.4405,-0.4405,0,0,-0.4872,-0.4847,-0.4818,-0.4757,-0.4731,-0.4681,-0.4719,-0.4665,-0.4627,-0.4646,-0.4575,-0.4557,-0.4517,-0.4437,-0.44,-0.4419,-0.4274,-0.4319,-0.4313,-0.4307,-0.4259,-0.4245,-0.4232,-0.4401,-0.4401,-0.4402,0,0,-0.4782,-0.476,-0.47,-0.4673,-0.4635,-0.4624,-0.461,-0.4573,-0.4562,-0.4491,-0.4503,-0.4458,-0.4375,-0.4346,-0.432,-0.4217,-0.4228,-0.4202,-0.415,-0.4101,-0.4089,-0.4078,-0.4039,-0.4025,-0.4194,-0.4194,-0.4193,0,-0.4743,-0.4669,-0.4668,-0.4612,-0.4583,-0.4599,-0.4537,-0.4511,-0.4459,-0.4438,-0.4461,-0.4356,-0.433,-0.4241,-0.4216,-0.4196,-0.4177,-0.4206,-0.4091,-0.4081,-0.407,-0.4032,-0.4018,-0.4191,-0.4191,-0.4191,-0.4191,0,-0.4621,-0.457,-0.4526,-0.4475,-0.4442,-0.4384,-0.4372,-0.4338,-0.434,-0.4327,-0.4253,-0.4223,-0.417,-0.415,-0.4151,-0.406,-0.4072,-0.4093,-0.4132,-0.4053,-0.4017,-0.4003,-0.4186,-0.4187,-0.4188,-0.4189,0,0,-0.4507,-0.4455,-0.4439,-0.4415,-0.4373,-0.4332,-0.4273,-0.4222,-0.4192,-0.4155,-0.4104,-0.4033,-0.4051,-0.4022,-0.4021,-0.3978,-0.3895,-0.4004,-0.4003,-0.3982,-0.3789,-0.3771,-0.3755,-0.3903,-0.39,-0.3898,-0.3791,0,-0.4411,-0.4308,-0.4304,-0.421,-0.4161,-0.4174,-0.4123,-0.409,-0.4075,-0.403,-0.4014,-0.3963,-0.3993,-0.3974,-0.3933,-0.3914,-0.3855,-0.3922,-0.3852,-0.385,-0.3859,-0.3737,-0.3718,-0.3619,-0.3777,-0.3775,-0.3773,0,-0.4285,-0.4244,-0.4145,-0.4107,-0.4087,-0.404,-0.3992,-0.3949,-0.3912,-0.3904,-0.3871,-0.3875,-0.3812,-0.3855,-0.3768,-0.3813,-0.3784,-0.377,-0.3766,-0.3757,-0.3805,-0.3721,-0.3588,-0.3572,-0.3752,-0.3753,-0.3755,0,-0.4207,-0.4128,-0.4057,-0.4037,-0.3992,-0.3959,-0.3939,-0.3904,-0.3873,-0.383,-0.3809,-0.376,-0.3732,-0.3693,-0.3683,-0.3715,-0.3594,-0.3637,-0.3584,-0.3584,-0.3556,-0.3557,-0.3412,-0.3542,-0.3542,-0.3543,-0.3543,0,-0.4099,-0.4037,-0.4021,-0.3978,-0.3908,-0.3904,-0.3834,-0.3816,-0.3784,-0.3736,-0.3746,-0.3699,-0.369,-0.3642,-0.3634,-0.3561,-0.3549,-0.3539,-0.3537,-0.3536,-0.3537,-0.3516,-0.3521,-0.3539,-0.354,-0.354,-0.3541,0,-0.3999,-0.3987,-0.3911,-0.3875,-0.3864,-0.3814,-0.3782,-0.3739,-0.3726,-0.3664,-0.365,-0.3628,-0.3571,-0.3558,-0.3491,-0.3485,-0.3398,-0.3404,-0.341,-0.341,-0.3356,-0.336,-0.319,-0.3166,-0.3315,-0.3313,-0.3312,0,-0.393,-0.3882,-0.3841,-0.3809,-0.3787,-0.3737,-0.3705,-0.3699,-0.3665,-0.3617,-0.3579,-0.3524,-0.3479,-0.3387,-0.3365,-0.3313,-0.3316,-0.326,-0.3308,-0.3308,-0.3311,-0.3313,-0.3306,-0.325,-0.3248,-0.3247,-0.3246,0,-0.3806,-0.3802,-0.3756,-0.3707,-0.3668,-0.363,-0.3592,-0.3566,-0.3554,-0.3515,-0.3457,-0.3422,-0.3353,-0.3297,-0.3244,-0.3222,-0.323,-0.3231,-0.3216,-0.3213,-0.3217,-0.3211,-0.3382,-0.3235,-0.3236,-0.3236,-0.3237,-0.3238,-0.3717,-0.3674,-0.3638,-0.3586,-0.3557,-0.3522,-0.3479,-0.346,-0.3412,-0.3355,-0.3355,-0.3291,-0.3253,-0.3183,-0.3157,-0.3106,-0.3123,-0.3101,-0.3095,-0.3089,-0.3082,-0.3228,-0.3097,-0.3097,-0.3097,-0.3098,-0.3098,0,-0.3591,-0.3568,-0.352,-0.3468,-0.3426,-0.344,-0.3399,-0.3362,-0.3306,-0.327,-0.3226,-0.3158,-0.3103,-0.3076,-0.3021,-0.2985,-0.2988,-0.2971,-0.2972,-0.2966,-0.3072,-0.309,-0.2969,-0.297,-0.297,-0.297,-0.297,-0.297,-0.352,-0.3448,-0.3439,-0.3351,-0.3329,-0.3267,-0.3242,-0.3208,-0.3179,-0.3103,-0.3058,-0.3041,-0.3008,-0.2951,-0.29,-0.2893,-0.2871,-0.2852,-0.2847,-0.2946,-0.2959,-0.2971,-0.2987,-0.2848,-0.2847,-0.2744,-0.2743,-0.2742]}]]